Pekoa, Vanuatu

1:48 AM VUT on February 11, 2016 (GMT +1100)
Pekoa

Weather History for 91554 - February, 2014

Change the Weather History Date:

Friday, February 7, 2014

  Actual Average Record
Temperature  
Mean Temperature 82 °F -  
Max Temperature 90 °F - - ()
Min Temperature 73 °F - - ()
Cooling Degree Days 16    
Growing Degree Days 32 (Base 50)    
Moisture  
Dew Point 79 °F    
Average Humidity 82    
Maximum Humidity 100    
Minimum Humidity 72    
Precipitation  
Precipitation 0.00 in - - ()
Sea Level Pressure  
Sea Level Pressure 29.74 in    
Wind  
Wind Speed 7 mph ()    
Max Wind Speed 15 mph    
Max Gust Speed -    
Visibility 8.3 miles    
Events Thunderstorm    
T = Trace of Precipitation, MM = Missing Value Source: Averaged Metar Reports

Daily Weather History Graph

Daily Weather History Graph

Search for Another Location

Airport or City:

Trip Planner

Search our weather history database for the weather conditions in past years. The results will help you decide how hot, cold, wet, or windy it might be!

Date:

Astronomy

Feb. 07, 2014 Rise Set
Actual Time 5:44 AM VUT 6:26 PM VUT
Civil Twilight 5:21 AM VUT 6:48 PM VUT
Nautical Twilight 4:55 AM VUT 7:14 PM VUT
Astronomical Twilight 4:28 AM VUT 7:41 PM VUT
Moon 12:17 PM VUT (2/7) No Moon Set
Length of Visible Light 13h 27m
Length of Day
12h 42m
First Quarter, 52% of the Moon is Illuminated
Feb 7
First Quarter
Feb 15
Full
Feb 23
Last Quarter
Mar 1
New
Mar 9
First Quarter

Hourly Weather History & Observations

Time (VUT) Temp. Heat Index Dew Point Humidity Pressure Visibility Wind Dir Wind Speed Gust Speed Precip Events Conditions
2:00 AM 77 °F - 77 °F 98% 29.74 in 12 mi 2.3 mph - -   Partly Cloudy
5:00 AM 77 °F - 77 °F 98% 29.74 in 12 mi Calm Calm - -   Partly Cloudy
5:00 AM 77.0 °F - 77.0 °F 100% 29.74 in 6.2 mi Calm Calm - N/A   Mostly Cloudy
6:00 AM 77.0 °F - 73.4 °F 89% 29.77 in 6.2 mi Calm Calm - N/A   Partly Cloudy
8:00 AM 85 °F - 79 °F 77% 29.59 in 12 mi ENE 12.7 mph - -   Partly Cloudy
8:00 AM 87.8 °F 108.2 °F 82.4 °F 84% 29.77 in 6.2 mi ENE 12.7 mph - N/A   Mostly Cloudy
9:00 AM 86.0 °F 99.3 °F 78.8 °F 79% 29.77 in 6.2 mi East 15.0 mph - N/A   Partly Cloudy
10:00 AM 86.0 °F 99.3 °F 78.8 °F 79% 29.74 in 6.2 mi East 13.8 mph - N/A   Partly Cloudy
11:00 AM 88 °F - 80 °F 72% 29.76 in 12 mi East 13.8 mph - -   Partly Cloudy
11:00 AM 86.0 °F 96.9 °F 77.0 °F 74% 29.77 in 6.2 mi ESE 9.2 mph - N/A   Scattered Clouds
12:00 PM 89.6 °F 108.2 °F 80.6 °F 75% 29.74 in 6.2 mi East 13.8 mph - N/A   Partly Cloudy
2:00 PM 88 °F - 80 °F 72% 29.72 in 12 mi East 15.0 mph - -   Partly Cloudy
2:00 PM 87.8 °F 104.9 °F 80.6 °F 79% 29.71 in 6.2 mi East 15.0 mph - N/A   Partly Cloudy
3:00 PM 87.8 °F 102.5 °F 78.8 °F 75% 29.71 in 6.2 mi East 11.5 mph - N/A   Partly Cloudy
4:00 PM 86.0 °F 99.3 °F 78.8 °F 79% 29.71 in 6.2 mi East 11.5 mph - N/A   Partly Cloudy
5:00 PM 86 °F - 79 °F 74% 29.75 in 12 mi East 11.5 mph - - Thunderstorm Thunderstorm
6:00 PM 84.2 °F 94.1 °F 77.0 °F 79% 29.77 in 6.2 mi East 9.2 mph - N/A   Partly Cloudy
11:00 PM 82 °F - 80 °F 90% 29.82 in 12 mi East 5.8 mph - -   Partly Cloudy
11:00 PM 82.4 °F 92.4 °F 78.8 °F 89% 29.80 in 6.2 mi East 5.8 mph - N/A   Partly Cloudy